Location: Unspecified
(52.4292°N, 19.3359°E)
Time: 22:49:41
(UTC+02:00)

SR - Pass Details

Date: 05 June 2024
Orbit: 580 x 858 km, 66.7° (Epoch: 12 June)

Event Time Altitude Azimuth Distance (km) Brightness Sun altitude
Rises 17:09:32 0° 256° (WSW) 3,100 ? 31.6°
Reaches altitude 10° 17:12:16 10° 268° (W) 2,133 ? 31.2°
Maximum altitude 17:16:22 27° 327° (NNW) 1,242 ? 30.6°
Drops below altitude 10° 17:20:16 10° 26° (NNE) 2,004 ? 30.0°
Sets 17:22:45 0° 39° (NE) 2,878 ? 29.6°
